Current weather by "City, St" or "zip code"  
 
Advertise Here

Current Conditions: Oklahoma City, Wiley Post Airport, OK

Fair


95.0 F

Last Updated on Jun 18 2021, 3:53 pm CDT
Humidity: 37%
Wind Speed: S 15.0 G 24.2 mph
Barometer 29.88 in
Dewpoint: 64.9 F
Visibility: 10.00 mi
Precip: --
Heat Index: 98 F
Wind Chill: NA
Current conditions at:

Oklahoma City, Wiley Post Airport, OK (KPWA)

Lat: 35.54111 Lon: 97.64667

Local Radar Image active severe weather and emergency alerts image image weather storm and storm spotter reports image weather observation monitoring service image
Local
Radar
Active
Alerts
Storm Reports Obs
Monitoring

Sign-up For Email & Text Message Weather Alert Notification Services


Advertise Here

Observation History for Oklahoma City, Wiley Post Airport, OK


Time Wind
(mph)
Vis
(mi)
Weather Precip (in) Temperature (F) Relative
Humidity
Wind
Chill
(F)
Heat
Index
(F)
Pressure
Air Dwpt altimeter
(in)
sea level
(mb)
Rmks
3:53 pm CDT S 15.0 G 24.2 10.00 Fair -- 95.0 64.9 37% NA 98 29.88 1010.0
2:53 pm CDT SW 13.8 G 23.0 10.00 Fair -- 94.0 64.0 37% NA 96 29.89 1010.4
1:53 pm CDT S 18.4 G 26.5 10.00 Fair -- 94.0 64.0 37% NA 96 29.91 1010.9
12:53 pm CDT S 15.0 10.00 Fair -- 94.0 66.0 40% NA 97 29.93 1011.4
11:53 am CDT SW 16.1 10.00 Fair -- 92.0 64.9 41% NA 94 29.94 1011.8
10:53 am CDT S 17.3 G 23.0 10.00 Fair -- 90.0 66.9 47% NA 93 29.94 1012.0
9:53 am CDT SW 15.0 10.00 Fair -- 86.0 66.9 53% NA 89 29.95 1012.4
8:53 am CDT SW 16.1 G 23.0 10.00 Fair -- 83.0 68.0 61% NA 86 29.95 1012.5
7:53 am CDT SW 13.8 10.00 Fair -- 79.0 66.9 67% NA NA 29.96 1012.6
6:53 am CDT SW 12.7 10.00 Fair -- 76.0 66.0 72% NA NA 29.95 1012.3
4:53 am CDT S 8.1 10.00 Fair -- 71.0 64.9 81% NA NA 29.94 1012.1
3:53 am CDT S 8.1 10.00 Fair -- 74.0 64.9 74% NA NA 29.94 1011.9
2:53 am CDT S 9.2 10.00 Fair -- 75.0 66.0 74% NA NA 29.94 1011.9
1:53 am CDT S 8.1 10.00 Fair -- 77.0 64.9 66% NA NA 29.94 1012.0
12:53 am CDT S 9.2 10.00 Fair -- 79.0 64.9 62% NA NA 29.96 1012.5
11:53 pm CDT S 10.4 10.00 Fair -- 81.0 66.0 61% NA 83 29.97 1012.8
10:53 pm CDT S 11.5 10.00 Fair -- 82.0 66.0 58% NA 84 29.96 1012.6
8:53 pm CDT S 10.4 10.00 Fair -- 85.0 66.0 53% NA 87 29.95 1012.3
7:53 pm CDT S 9.2 10.00 Fair -- 89.0 66.0 47% NA 91 29.94 1011.8
6:53 pm CDT S 10.4 10.00 Fair -- 92.0 64.0 40% NA 94 29.93 1011.6
5:53 pm CDT S 13.8 G 20.7 10.00 Fair -- 94.0 64.9 38% NA 96 29.94 1012.0

Regional Weather Observation


Clarence E Page Municipal Airport, OK (KRCE)

Fair
95.0 F

Oklahoma City, Wiley Post Airport, OK (KPWA)

Fair
95.0 F

Guthrie, Guthrie Municipal Airport, OK (KGOK)

Fair
95.0 F

El Reno, El Reno Regional Airport, OK (KRQO)

Fair
96.0 F

Oklahoma City, Will Rogers World Airport, OK (KOKC)

A Few Clouds
93.0 F

Tinker Air Force Base, OK (KTIK)

Fair
92.0 F
Advertise Here

Advertise Here